Wind_Speed
15 12 14 20 20 19 20 20 17 16 16 23 21 17 11 17 22 15 25 30 29 29 31 27 29 27 20 24 24 22 35 28 24 44 38 32 29 21 22 19 17 16 19 17
11 17 16 15 17 21 21 22 20 13 24 19 21 19 15 11 18 26 22 32 35 35 35 32 33 33 27 27 27 27 26 30 36 36 37 31 29 27 23 18 16 17 17 17
11 19 20 19 22 24 21 20 19 15 14 21 9 20 11 19 18 24 31 26 39 41 42 40 34 39 33 29 31 30 30 26 31 29 35 32 27 24 24 21 15 15 14 14
15 14 17 22 22 20 17 17 20 20 16 12 16 11 12 19 20 11 21 23 35 37 40 39 34 32 31 30 30 27 28 27 21 25 26 28 30 30 23 21 22 16 14 12
6 8 12 17 19 22 17 17 17 21 17 11 19 11 16 16 15 20 11 19 29 26 39 39 37 29 29 31 31 30 21 17 21 25 25 27 25 22 18 18 16 14 11 10
12 13 13 15 15 19 15 19 18 16 16 13 18 10 17 15 26 11 8 24 32 34 30 36 38 29 30 30 27 22 26 31 26 26 24 23 20 19 18 19 18 13 10 9
4 16 18 12 9 13 9 8 9 7 13 9 15 10 10 10 14 19 18 24 34 36 35 31 34 35 32 31 27 25 29 29 23 18 21 17 18 16 16 18 17 13 10 9
4 4 9 18 19 7 9 8 3 7 6 14 12 7 9 9 12 23 24 30 37 34 34 23 35 38 34 36 37 28 26 21 18 14 19 17 13 16 19 17 15 13 10 7
4 3 11 10 8 16 6 9 10 5 6 7 6 9 5 12 7 3 16 31 36 35 32 26 36 37 37 41 34 29 27 22 20 23 18 16 19 18 19 21 18 12 9 7
4 6 7 9 0 8 9 5 5 4 9 5 7 19 7 7 7 11 7 22 35 38 30 30 41 34 39 40 34 30 29 28 25 24 19 20 20 19 19 19 16 13 10 5
7 4 1 5 7 10 7 13 11 3 4 6 7 9 14 3 12 14 12 23 29 31 34 39 44 42 44 39 37 34 30 29 24 24 22 22 21 19 16 14 12 10 8 5
2 3 6 9 6 1 1 6 10 4 10 1 1 2 13 4 16 21 16 34 40 43 42 40 48 46 42 35 35 37 33 28 26 26 25 22 18 12 12 10 9 7 5 2
1 1 5 5 3 3 3 6 8 7 5 7 2 1 11 12 14 22 30 32 39 42 42 39 41 41 42 42 39 37 34 31 27 23 19 14 14 14 13 9 6 3 1 2
8 3 6 5 8 4 7 9 12 12 4 5 2 3 6 7 17 20 28 35 37 39 42 41 39 41 40 41 40 37 31 26 23 19 19 20 17 14 11 8 6 3 0 2
2 5 10 17 17 14 10 9 10 13 14 5 6 4 6 3 12 23 35 39 40 39 41 41 40 38 40 40 37 33 28 24 23 24 21 18 15 13 9 6 3 1 3 5
3 3 4 13 17 14 7 13 12 1 12 8 6 1 11 4 20 29 36 40 39 38 38 39 39 41 41 40 36 32 28 26 24 22 21 17 14 10 6 3 3 4 6 6
3 2 2 4 13 9 4 13 11 9 8 5 4 5 12 13 15 25 38 41 41 40 38 38 39 40 38 36 34 34 30 25 22 19 16 12 9 7 5 5 5 7 10 9
4 2 2 4 8 2 7 14 11 16 12 3 6 13 16 21 29 33 36 45 41 40 40 42 42 40 36 32 31 30 26 24 21 18 14 11 8 6 6 7 8 11 13 14
7 1 4 1 2 8 14 8 10 20 7 10 14 21 27 40 45 29 34 42 40 43 41 43 39 36 33 31 29 28 25 22 20 16 12 10 8 9 9 11 12 11 11 12
8 5 3 5 3 4 4 17 29 16 6 14 17 21 27 39 18 9 29 42 42 44 43 42 37 34 31 27 25 25 23 20 20 15 14 11 10 10 12 12 11 12 12 12
4 3 2 2 4 4 7 23 24 4 7 19 23 16 27 20 18 33 35 39 42 40 39 37 34 32 28 24 24 25 21 19 16 14 12 13 12 12 11 10 10 10 12 12
4 6 3 2 3 4 3 10 4 14 30 31 31 38 42 42 36 39 36 37 37 37 34 32 31 28 24 22 20 21 20 16 14 14 14 12 12 12 11 10 10 10 10 10
3 6 4 5 2 7 22 22 33 37 41 35 37 34 50 42 39 38 37 37 35 35 34 30 29 26 22 19 17 20 19 18 17 15 16 15 14 14 13 13 12 11 10 11
9 13 4 6 11 18 29 34 36 39 36 37 40 35 41 43 36 37 35 34 34 31 31 29 27 26 23 19 17 18 19 17 15 17 16 15 16 15 16 13 13 13 13 15
4 11 9 5 10 23 24 35 41 40 43 44 41 42 40 40 34 34 33 32 32 31 28 27 26 24 23 18 16 15 17 17 19 18 15 15 16 16 17 16 15 16 16 19
10 6 4 4 11 20 16 29 41 41 40 46 50 47 38 31 32 32 33 33 31 30 28 28 27 25 20 22 22 19 16 18 20 20 16 15 15 16 16 16 18 20 20 20
Wind_Direction
238 248 227 223 234 246 241 249 235 240 212 224 241 224 205 206 233 240 215 217 214 220 235 239 233 228 247 208 211 209 188 167 198 201 201 182 191 186 194 206 211 220 231 234
283 253 239 242 257 251 248 245 253 238 242 213 231 234 215 190 216 230 231 205 211 214 221 233 236 234 238 213 208 197 183 189 202 199 201 198 195 192 198 199 210 221 226 237
209 258 233 233 239 250 242 236 246 248 253 237 217 227 229 213 210 213 222 203 208 211 214 226 237 229 228 200 186 185 186 195 185 187 197 200 198 199 206 210 212 228 229 231
213 224 245 231 229 234 237 251 246 255 249 249 218 228 222 219 205 207 211 212 209 206 213 225 230 215 200 183 190 195 193 195 196 195 197 199 199 206 210 208 214 209 198 213
253 289 306 268 243 218 242 240 247 244 251 252 262 235 222 203 196 207 200 205 208 209 215 220 228 223 201 186 187 183 193 207 209 197 203 196 201 203 193 197 192 188 209 227
288 264 245 268 301 272 241 229 245 249 239 246 247 243 223 187 195 182 204 213 213 208 209 215 218 213 190 188 198 195 196 216 210 203 190 198 190 194 188 182 187 195 216 223
286 243 241 250 283 268 249 255 216 215 230 222 234 243 249 207 184 188 205 200 201 198 210 211 207 183 174 177 179 175 184 192 196 196 193 188 196 197 193 188 189 197 207 221
240 1 194 190 213 210 257 229 185 173 186 219 215 206 227 202 195 201 203 197 188 189 198 191 187 177 164 162 160 176 184 177 178 178 172 185 179 168 170 169 186 194 212 221
319 355 313 292 235 192 266 246 241 164 187 217 172 244 219 263 165 337 219 181 176 176 186 170 177 178 168 156 163 176 164 158 160 162 170 159 160 175 167 168 180 186 203 207
317 300 215 280 71 161 199 273 239 235 184 184 195 215 224 210 87 34 13 168 165 171 171 180 172 159 153 157 162 157 155 158 163 171 172 167 175 184 177 175 178 192 193 187
339 298 285 311 200 181 164 234 240 184 152 205 183 213 208 251 119 85 47 85 125 131 120 126 125 130 147 152 155 148 149 150 161 171 170 174 180 182 177 184 178 181 196 211
91 272 270 243 293 243 127 275 196 217 218 234 80 252 337 240 120 103 81 92 98 107 111 113 120 128 141 139 138 139 148 152 158 161 168 169 171 174 168 163 153 156 176 215
316 326 306 307 119 193 210 202 211 195 338 205 149 320 347 92 107 105 110 103 106 107 106 107 110 116 123 131 135 138 143 146 146 148 154 156 150 141 134 134 135 133 117 12
149 230 248 262 289 302 298 232 183 182 117 220 273 56 12 87 118 111 105 106 106 106 108 107 108 110 114 121 128 129 128 134 134 138 138 135 130 128 126 119 117 111 50 346
91 247 238 263 261 249 247 273 226 214 186 157 222 214 153 149 133 120 112 108 105 106 106 110 111 111 111 113 118 120 119 123 127 126 124 116 111 110 115 122 113 359 342 331
187 269 288 277 243 247 240 249 183 296 164 136 227 210 136 171 136 112 110 108 105 107 109 109 107 111 113 115 116 115 111 108 112 110 107 113 119 120 111 70 360 331 331 328
207 258 285 277 164 181 246 179 175 122 105 97 25 186 142 123 104 112 111 107 108 107 104 101 103 109 114 113 113 109 111 114 114 114 115 113 110 107 80 46 19 5 2 8
199 213 242 274 139 106 343 139 123 114 104 179 136 144 116 100 94 94 107 108 106 103 101 104 109 110 111 114 113 117 120 119 117 113 113 108 99 82 59 46 49 48 34 35
175 354 286 283 11 140 40 89 110 118 100 139 110 106 110 99 86 75 98 101 103 102 107 110 111 112 113 112 117 119 119 118 114 109 105 97 91 88 76 67 59 44 37 52
151 227 285 345 41 77 218 115 119 111 77 115 115 126 123 112 94 96 100 102 102 105 111 113 113 114 114 117 123 119 116 117 114 111 98 90 86 79 69 62 58 51 51 65
334 350 51 339 82 93 247 162 182 85 145 129 109 91 104 97 110 116 103 100 110 114 115 117 120 115 117 125 127 120 119 109 115 124 104 88 77 73 67 56 54 54 58 69
341 328 31 322 68 151 204 219 304 126 121 113 109 113 104 109 110 105 104 103 109 114 117 120 120 120 123 128 127 120 112 116 112 112 111 95 74 69 64 56 67 61 67 69
18 3 310 14 359 45 67 91 116 123 119 119 114 116 113 109 106 106 108 110 111 116 118 121 120 122 124 125 119 114 108 105 103 101 87 78 70 66 66 65 67 67 70 71
342 8 13 350 13 88 84 88 96 106 111 114 114 114 110 112 111 112 112 110 111 111 113 115 114 111 109 110 110 109 112 111 112 100 87 73 65 60 57 63 65 64 62 60
326 314 318 2 24 76 82 105 111 111 117 109 105 110 108 110 113 115 115 114 112 113 114 112 107 101 96 95 100 106 107 106 102 100 89 69 56 62 57 53 53 62 60 59
339 340 358 9 9 84 90 112 121 116 115 123 125 115 110 113 114 112 109 115 117 114 112 110 107 102 91 82 77 79 89 107 109 100 86 63 52 58 62 65 66 67 72 74
Height
1410 1413 1408 1406 1405 1403 1402 1406 1402 1396 1389 1398 1396 1400 1402 1403 1407 1410 1412 1416 1419 1422 1426 1430 1434 1440 1447 1444 1446 1450 1458 1464 1470 1467 1491 1484 1492 1493 1498 1505 1505 1509 1512 1512
1414 1407 1404 1404 1406 1403 1402 1403 1400 1391 1386 1391 1390 1397 1393 1396 1399 1402 1406 1409 1413 1419 1423 1425 1429 1440 1445 1438 1446 1451 1457 1465 1470 1478 1482 1488 1491 1493 1495 1500 1503 1507 1510 1510
1413 1408 1397 1402 1404 1401 1396 1399 1398 1399 1384 1381 1389 1396 1393 1388 1392 1395 1400 1401 1407 1410 1416 1419 1427 1435 1437 1441 1448 1456 1460 1467 1469 1476 1480 1486 1489 1492 1494 1496 1501 1505 1503 1505
1395 1392 1395 1400 1396 1396 1403 1393 1392 1392 1396 1403 1377 1407 1392 1385 1386 1388 1392 1395 1400 1405 1410 1414 1424 1428 1432 1440 1447 1453 1457 1462 1466 1471 1474 1478 1481 1486 1492 1496 1501 1501 1500 1503
1391 1391 1399 1391 1395 1389 1392 1389 1389 1388 1393 1396 1385 1393 1382 1376 1385 1381 1384 1390 1396 1401 1405 1411 1417 1425 1428 1435 1442 1447 1456 1463 1465 1467 1472 1475 1482 1485 1491 1496 1499 1500 1498 1498
1388 1383 1388 1390 1392 1388 1383 1386 1389 1386 1387 1406 1386 1391 1382 1373 1366 1376 1380 1384 1391 1395 1401 1408 1413 1421 1426 1432 1439 1446 1450 1457 1465 1467 1471 1477 1481 1488 1489 1491 1495 1495 1495 1497
1383 1379 1378 1385 1393 1383 1382 1392 1400 1408 1398 1401 1380 1385 1381 1362 1361 1366 1372 1377 1384 1390 1397 1405 1408 1416 1420 1428 1435 1443 1451 1458 1463 1467 1470 1475 1484 1487 1486 1489 1491 1493 1494 1497
1387 1378 1375 1374 1382 1376 1382 1386 1391 1412 1415 1394 1375 1385 1376 1350 1354 1361 1366 1371 1379 1385 1393 1401 1405 1413 1418 1424 1435 1445 1450 1455 1460 1466 1472 1477 1483 1483 1486 1490 1491 1493 1493 1495
1389 1381 1373 1368 1365 1373 1384 1386 1376 1385 1384 1392 1380 1371 1362 1351 1352 1358 1355 1363 1371 1379 1389 1399 1405 1412 1414 1423 1434 1441 1450 1458 1463 1468 1472 1478 1483 1485 1486 1489 1490 1491 1493 1493
1391 1387 1376 1367 1367 1370 1378 1377 1385 1379 1388 1397 1379 1372 1378 1358 1361 1359 1350 1352 1366 1379 1388 1396 1404 1408 1415 1425 1435 1442 1451 1457 1462 1468 1473 1477 1482 1484 1485 1488 1490 1490 1491 1491
1393 1389 1375 1372 1366 1362 1373 1374 1373 1374 1382 1395 1390 1375 1356 1358 1361 1364 1360 1358 1367 1378 1386 1394 1403 1413 1419 1428 1435 1442 1452 1459 1464 1469 1474 1478 1481 1483 1485 1487 1489 1491 1492 1494
1400 1399 1389 1368 1354 1359 1365 1370 1367 1381 1384 1375 1383 1379 1369 1364 1358 1360 1370 1368 1375 1383 1393 1403 1409 1417 1424 1434 1441 1445 1452 1458 1464 1468 1470 1475 1481 1485 1487 1490 1493 1494 1496 1495
1398 1393 1390 1363 1360 1357 1367 1361 1367 1375 1380 1382 1393 1387 1375 1368 1368 1368 1371 1379 1383 1391 1399 1409 1416 1423 1430 1438 1443 1448 1455 1460 1466 1470 1473 1478 1483 1487 1489 1491 1494 1494 1494 1494
1395 1395 1388 1384 1373 1377 1373 1356 1357 1368 1389 1384 1392 1387 1385 1380 1376 1376 1380 1386 1391 1398 1405 1414 1424 1430 1438 1444 1447 1452 1459 1465 1469 1471 1477 1481 1485 1488 1490 1492 1493 1493 1492 1490
1396 1389 1384 1371 1364 1363 1367 1362 1358 1361 1371 1392 1391 1389 1391 1388 1385 1378 1385 1392 1399 1407 1414 1423 1430 1439 1444 1449 1453 1457 1463 1467 1471 1476 1481 1485 1488 1490 1491 1491 1491 1492 1491 1489
1395 1386 1379 1369 1358 1354 1359 1355 1354 1351 1357 1375 1381 1386 1388 1390 1389 1384 1390 1398 1407 1417 1425 1431 1436 1440 1448 1453 1457 1459 1465 1471 1476 1480 1484 1487 1489 1490 1491 1491 1491 1490 1489 1487
1391 1386 1377 1355 1345 1355 1361 1351 1351 1358 1361 1369 1391 1386 1383 1386 1392 1391 1396 1405 1415 1425 1432 1437 1442 1448 1454 1458 1459 1461 1469 1476 1480 1484 1487 1488 1489 1490 1490 1490 1489 1487 1486 1485
1380 1384 1376 1358 1347 1357 1340 1336 1344 1366 1373 1382 1384 1382 1387 1385 1398 1404 1410 1410 1423 1430 1437 1443 1448 1454 1459 1462 1462 1467 1475 1480 1484 1487 1488 1489 1490 1490 1490 1489 1488 1487 1487 1485
1375 1384 1371 1361 1360 1353 1359 1358 1362 1364 1387 1385 1388 1384 1392 1394 1401 1423 1425 1426 1432 1434 1443 1448 1454 1458 1463 1465 1470 1474 1479 1484 1488 1489 1490 1491 1492 1492 1490 1489 1489 1488 1487 1486
1376 1378 1375 1360 1353 1364 1369 1361 1362 1370 1393 1393 1390 1394 1392 1395 1414 1436 1436 1433 1437 1442 1448 1450 1457 1462 1467 1474 1477 1479 1484 1488 1491 1492 1492 1493 1492 1491 1491 1490 1490 1489 1488 1487
1374 1377 1375 1369 1361 1369 1364 1359 1361 1371 1399 1399 1399 1397 1402 1406 1424 1434 1439 1440 1443 1449 1452 1455 1463 1469 1476 1479 1481 1483 1487 1491 1493 1494 1494 1493 1492 1492 1491 1491 1491 1490 1489 1489
1386 1380 1377 1373 1362 1371 1369 1369 1370 1382 1393 1401 1407 1412 1414 1421 1433 1436 1444 1447 1451 1452 1458 1463 1469 1476 1481 1484 1485 1487 1489 1492 1494 1496 1495 1493 1494 1494 1494 1493 1492 1491 1491 1491
1387 1395 1388 1386 1385 1375 1367 1371 1379 1382 1390 1405 1411 1420 1415 1428 1437 1442 1449 1454 1458 1461 1465 1471 1474 1480 1486 1488 1489 1488 1492 1495 1497 1496 1495 1495 1497 1497 1496 1495 1494 1493 1493 1492
1404 1399 1394 1385 1385 1384 1386 1389 1393 1397 1405 1412 1417 1425 1428 1431 1442 1450 1457 1461 1466 1470 1473 1478 1482 1485 1488 1490 1491 1491 1495 1497 1497 1496 1496 1498 1499 1498 1497 1497 1496 1496 1494 1493
1420 1412 1406 1397 1396 1398 1402 1401 1402 1410 1415 1419 1427 1432 1437 1443 1453 1458 1463 1469 1473 1476 1481 1484 1486 1488 1491 1493 1494 1495 1496 1497 1497 1498 1499 1500 1501 1501 1500 1500 1499 1498 1498 1497
1429 1422 1418 1414 1409 1405 1414 1414 1413 1418 1424 1427 1432 1442 1447 1456 1460 1465 1468 1473 1477 1482 1487 1489 1491 1492 1494 1497 1498 1497 1497 1498 1499 1500 1502 1503 1503 1504 1504 1503 1502 1502 1501 1500